SHT21B EGJB-EGLL

Flight info

Callsign SHT21B
Flight time 0h 30m
Altitude 19000
Route ORIST L982 ROXOG
Aircraft A320/M-SDE3FGHIRWY/LB1

Departure

Time 2026-04-30 13:12
Airport Guernsey Airport (EGJB)

Arrival

Time 2026-04-30 13:42
Airport London Heathrow Airport (EGLL)
Time Latitude Longitude Altitude Speed Heading
2026-04-30 12:52 49.43256 -2.59684 328 ft 0 kts 177°
2026-04-30 13:02 49.43265 -2.59685 328 ft 4 kts 177°
2026-04-30 13:02 49.43292 -2.59687 327 ft 4 kts 177°
2026-04-30 13:02 49.43318 -2.59687 326 ft 4 kts 188°
2026-04-30 13:03 49.43340 -2.59677 327 ft 3 kts 212°
2026-04-30 13:03 49.43358 -2.59651 327 ft 4 kts 251°
2026-04-30 13:03 49.43362 -2.59615 327 ft 1 kts 267°
2026-04-30 13:03 49.43362 -2.59613 327 ft 0 kts 267°
2026-04-30 13:04 49.43362 -2.59614 327 ft 0 kts 267°
2026-04-30 13:05 49.43362 -2.59626 326 ft 4 kts 268°
2026-04-30 13:05 49.43357 -2.59701 324 ft 10 kts 261°
2026-04-30 13:05 49.43340 -2.59822 326 ft 13 kts 266°
2026-04-30 13:06 49.43333 -2.60241 297 ft 16 kts 268°
2026-04-30 13:06 49.43329 -2.60425 296 ft 19 kts 267°
2026-04-30 13:06 49.43330 -2.60638 298 ft 20 kts 281°
2026-04-30 13:06 49.43354 -2.60835 304 ft 17 kts 281°
2026-04-30 13:07 49.43365 -2.60994 311 ft 13 kts 267°
2026-04-30 13:07 49.43359 -2.61136 312 ft 12 kts 267°
2026-04-30 13:07 49.43358 -2.61210 313 ft 0 kts 268°
2026-04-30 13:10 49.43358 -2.61211 313 ft 1 kts 268°
2026-04-30 13:10 49.43359 -2.61242 313 ft 7 kts 281°
2026-04-30 13:11 49.43399 -2.61323 315 ft 10 kts 311°
2026-04-30 13:11 49.43455 -2.61353 316 ft 4 kts 24°
2026-04-30 13:11 49.43465 -2.61313 315 ft 0 kts 86°
2026-04-30 13:12 49.43477 -2.60935 311 ft 82 kts 87°
2026-04-30 13:12 49.43510 -2.59670 339 ft 150 kts 88°
2026-04-30 13:12 49.43547 -2.57998 1047 ft 160 kts 90°
2026-04-30 13:13 49.43644 -2.54431 2337 ft 183 kts 91°
2026-04-30 13:13 49.43697 -2.52343 2696 ft 206 kts 91°
2026-04-30 13:13 49.45022 -2.48430 4130 ft 234 kts 30°
2026-04-30 13:14 49.46562 -2.47555 4956 ft 239 kts 18°
2026-04-30 13:14 49.48197 -2.46967 5732 ft 245 kts 14°
2026-04-30 13:14 49.51871 -2.45816 6660 ft 289 kts 14°
2026-04-30 13:15 49.53863 -2.45154 7445 ft 295 kts 15°
2026-04-30 13:15 49.57917 -2.43704 9178 ft 303 kts 16°
2026-04-30 13:15 49.59975 -2.42934 10039 ft 306 kts 17°
2026-04-30 13:16 49.62050 -2.42143 10815 ft 309 kts 17°
2026-04-30 13:16 49.64151 -2.41332 11584 ft 313 kts 17°
2026-04-30 13:16 49.66247 -2.40516 12345 ft 316 kts 18°
2026-04-30 13:17 49.70327 -2.38025 13829 ft 317 kts 38°
2026-04-30 13:17 49.72043 -2.35769 14049 ft 333 kts 52°
2026-04-30 13:17 49.74648 -2.30981 14564 ft 356 kts 54°
2026-04-30 13:18 49.76788 -2.27071 15336 ft 363 kts 54°
2026-04-30 13:18 49.80094 -2.21074 16559 ft 369 kts 54°
2026-04-30 13:18 49.81765 -2.18032 17168 ft 372 kts 55°
2026-04-30 13:19 49.83449 -2.14956 17779 ft 376 kts 55°
2026-04-30 13:19 49.85132 -2.11881 18384 ft 379 kts 55°
2026-04-30 13:19 49.86846 -2.08745 18881 ft 382 kts 55°
2026-04-30 13:19 49.88568 -2.05591 19052 ft 383 kts 55°
2026-04-30 13:20 49.89736 -2.03450 19088 ft 387 kts 55°
2026-04-30 13:20 49.91458 -2.00286 19100 ft 389 kts 55°
2026-04-30 13:20 49.93207 -1.97069 19116 ft 390 kts 55°
2026-04-30 13:20 49.94957 -1.93843 19118 ft 390 kts 55°
2026-04-30 13:21 49.96702 -1.90622 19122 ft 390 kts 56°
2026-04-30 13:21 49.98454 -1.87409 19127 ft 391 kts 53°
2026-04-30 13:21 50.00476 -1.84524 19128 ft 398 kts 42°
2026-04-30 13:22 50.05368 -1.80272 19126 ft 405 kts 32°
2026-04-30 13:22 50.07880 -1.78293 19130 ft 405 kts 32°
2026-04-30 13:22 50.12793 -1.74085 19135 ft 399 kts 41°
2026-04-30 13:23 50.14942 -1.71383 19143 ft 396 kts 45°
2026-04-30 13:23 50.19180 -1.65872 19136 ft 397 kts 45°
2026-04-30 13:24 50.23433 -1.60362 19149 ft 397 kts 45°
2026-04-30 13:24 50.28098 -1.55621 19152 ft 408 kts 27°
2026-04-30 13:25 50.33501 -1.52875 19160 ft 411 kts 21°
2026-04-30 13:25 50.38967 -1.50205 19160 ft 411 kts 22°
2026-04-30 13:26 50.47160 -1.46174 19164 ft 412 kts 22°
2026-04-30 13:26 50.52626 -1.43467 19172 ft 411 kts 24°
2026-04-30 13:27 50.57720 -1.39520 19174 ft 405 kts 34°
2026-04-30 13:28 50.65133 -1.33154 19166 ft 404 kts 33°
2026-04-30 13:28 50.70044 -1.28933 19176 ft 404 kts 33°
2026-04-30 13:28 50.72499 -1.26812 19104 ft 400 kts 33°
2026-04-30 13:29 50.77258 -1.22656 18372 ft 384 kts 34°
2026-04-30 13:29 50.81721 -1.18173 17380 ft 375 kts 38°
2026-04-30 13:30 50.88134 -1.11348 15948 ft 366 kts 38°
2026-04-30 13:31 50.92352 -1.06938 15015 ft 360 kts 37°
2026-04-30 13:31 50.98542 -1.00514 13598 ft 352 kts 37°
2026-04-30 13:32 51.02697 -0.96463 12461 ft 356 kts 28°
2026-04-30 13:32 51.07416 -0.93893 11316 ft 360 kts 18°
2026-04-30 13:33 51.12161 -0.91914 10801 ft 342 kts 19°
2026-04-30 13:33 51.16572 -0.89875 10539 ft 319 kts 21°
2026-04-30 13:34 51.18716 -0.88798 9793 ft 330 kts 21°
2026-04-30 13:34 51.25191 -0.85462 7955 ft 310 kts 21°
2026-04-30 13:35 51.27199 -0.84435 7611 ft 298 kts 21°
2026-04-30 13:35 51.31079 -0.82439 6944 ft 288 kts 21°
2026-04-30 13:36 51.34803 -0.80527 6302 ft 278 kts 21°
2026-04-30 13:36 51.36653 -0.79578 5964 ft 272 kts 22°
2026-04-30 13:36 51.40298 -0.78721 5316 ft 264 kts
2026-04-30 13:37 51.42094 -0.78820 4997 ft 260 kts
2026-04-30 13:37 51.45519 -0.78418 4307 ft 234 kts 31°
2026-04-30 13:38 51.47488 -0.74830 3377 ft 210 kts 79°
2026-04-30 13:38 51.47626 -0.72642 3069 ft 188 kts 92°
2026-04-30 13:38 51.47649 -0.68650 2572 ft 168 kts 91°
2026-04-30 13:39 51.47670 -0.65280 2177 ft 137 kts 92°
2026-04-30 13:39 51.47684 -0.62360 1820 ft 129 kts 92°
2026-04-30 13:40 51.47691 -0.60923 1651 ft 129 kts 92°
2026-04-30 13:40 51.47698 -0.59474 1481 ft 130 kts 93°
2026-04-30 13:40 51.47703 -0.58037 1326 ft 129 kts 93°
2026-04-30 13:40 51.47711 -0.56596 1139 ft 129 kts 94°
2026-04-30 13:41 51.47714 -0.55164 918 ft 129 kts 89°
2026-04-30 13:41 51.47722 -0.53723 783 ft 127 kts 89°
2026-04-30 13:41 51.47736 -0.52302 647 ft 129 kts 89°
2026-04-30 13:41 51.47739 -0.50843 440 ft 129 kts 90°
2026-04-30 13:42 51.47745 -0.49414 253 ft 127 kts 90°
2026-04-30 13:42 51.47751 -0.47999 107 ft 126 kts 89°
2026-04-30 13:42 51.47760 -0.46098 86 ft 37 kts 90°
2026-04-30 13:43 51.47761 -0.45785 84 ft 27 kts 89°
2026-04-30 13:43 51.47760 -0.45559 85 ft 13 kts 96°
2026-04-30 13:43 51.47694 -0.45469 89 ft 14 kts 168°
2026-04-30 13:43 51.47600 -0.45509 87 ft 16 kts 238°
2026-04-30 13:44 51.47595 -0.45713 88 ft 23 kts 270°
2026-04-30 13:44 51.47595 -0.46007 88 ft 28 kts 270°
2026-04-30 13:44 51.47594 -0.46333 86 ft 29 kts 270°
2026-04-30 13:44 51.47592 -0.46652 86 ft 29 kts 269°
2026-04-30 13:45 51.47582 -0.47294 89 ft 28 kts 270°
2026-04-30 13:45 51.47581 -0.47603 91 ft 28 kts 269°
2026-04-30 13:45 51.47578 -0.47933 88 ft 31 kts 270°
2026-04-30 13:46 51.47578 -0.48259 88 ft 26 kts 269°
2026-04-30 13:46 51.47577 -0.48516 86 ft 22 kts 270°
2026-04-30 13:46 51.47576 -0.48749 86 ft 19 kts 269°
2026-04-30 13:46 51.47571 -0.48912 86 ft 12 kts 255°
2026-04-30 13:47 51.47506 -0.48954 86 ft 10 kts 180°
2026-04-30 13:47 51.47435 -0.48953 86 ft 7 kts 179°
2026-04-30 13:47 51.47421 -0.48953 87 ft 1 kts 179°
2026-04-30 13:47 51.47417 -0.48953 88 ft 0 kts 179°